Ozark, AL

7:00 AM CDT on April 23, 2018 (GMT -0500)
Cairns Army Air Field

Weather History for KOZR - October, 2012

Change the Weather History Date:

Friday, October 19, 2012

  Actual Average Record
Temperature  
Mean Temperature 63 °F -  
Max Temperature 77 °F 75 °F 89 °F (1998)
Min Temperature 50 °F 52 °F 42 °F (1996)
Degree Days  
Heating Degree Days 2    
Growing Degree Days 13 (Base 50)    
Moisture  
Dew Point 49 °F    
Average Humidity 70    
Maximum Humidity 100    
Minimum Humidity 28    
Precipitation  
Precipitation 12.34 in - - ()
Sea Level Pressure  
Sea Level Pressure 29.87 in    
Wind  
Wind Speed 2 mph (West)    
Max Wind Speed 10 mph    
Max Gust Speed 17 mph    
Visibility 8 miles    
Events Fog    
Averages and records for this station are not official NWS values.
T = Trace of Precipitation, MM = Missing Value Source: NWS Daily Summary

Daily Weather History Graph

Daily Weather History Graph

Search for Another Location

Airport or City:

Astronomy

Oct. 19, 2012 Rise Set
Actual Time 6:48 AM CDT 6:06 PM CDT
Civil Twilight 6:24 AM CDT 6:30 PM CDT
Nautical Twilight 5:56 AM CDT 6:58 PM CDT
Astronomical Twilight 5:27 AM CDT 7:26 PM CDT
Moon 11:18 AM CDT (10/19) 9:56 PM CDT (10/19)
Length of Visible Light 12h 06m
Length of Day
11h 17m
Waxing Crescent, 24% of the Moon is Illuminated
Oct 19
Waxing Crescent
Oct 21
First Quarter
Oct 29
Full
Nov 6
Last Quarter
Nov 13
New

Hourly Weather History & Observations

Time (CDT) Temp. Dew Point Humidity Pressure Visibility Wind Dir Wind Speed Gust Speed Precip Events Conditions
12:44 AM 59.0 °F 59.0 °F 100% 29.87 in 2.0 mi Calm Calm - N/A   Clear
12:45 AM 59.0 °F 59.0 °F 100% 29.87 in 1.2 mi Calm Calm - N/A   Clear
12:46 AM 59.0 °F 57.2 °F 94% 29.87 in 1.0 mi Calm Calm - N/A   Clear
12:47 AM 59.0 °F 57.2 °F 94% 29.87 in 0.8 mi Calm Calm - N/A   Clear
12:50 AM 59.0 °F 57.2 °F 94% 29.87 in 0.5 mi Calm Calm - N/A Fog Fog
12:55 AM 58.8 °F 57.9 °F 97% 29.87 in 0.5 mi Calm Calm - N/A Fog Fog
1:00 AM 57.2 °F 57.2 °F 100% 29.87 in 0.2 mi Calm Calm - N/A Fog Fog
1:05 AM 57.2 °F 57.2 °F 100% 29.86 in 3.0 mi Calm Calm - N/A   Clear
1:55 AM 55.9 °F 55.0 °F 97% 29.87 in 10.0 mi NW 4.6 mph - N/A   Clear
2:55 AM 54.1 °F 52.0 °F 92% 29.86 in 10.0 mi NW 6.9 mph - -   Clear
3:55 AM 54.1 °F 48.6 °F 81% 29.86 in 10.0 mi NNW 6.9 mph - -   Clear
4:55 AM 52.9 °F 46.9 °F 80% 29.87 in 10.0 mi NNW 6.9 mph - -   Clear
5:55 AM 52.3 °F 45.3 °F 77% 29.88 in 10.0 mi NW 3.5 mph - -   Clear
6:55 AM 50.2 °F 45.7 °F 85% 29.88 in 10.0 mi Calm Calm - -   Clear
7:55 AM 54.1 °F 50.5 °F 88% 29.90 in 10.0 mi Calm Calm - -   Clear
8:55 AM 59.9 °F 49.1 °F 67% 29.91 in 10.0 mi Calm Calm - 5.01 in   Clear
9:55 AM 66.0 °F 47.5 °F 51% 29.92 in 10.0 mi NW 3.5 mph - N/A   Clear
10:55 AM 71.1 °F 44.6 °F 39% 29.92 in 10.0 mi Variable 3.5 mph - N/A   Clear
11:55 AM 73.4 °F 39.2 °F 29% 29.91 in 10.0 mi West 4.6 mph - N/A   Clear
12:55 PM 75.2 °F 39.6 °F 28% 29.91 in 10.0 mi SW 9.2 mph - N/A   Clear
1:55 PM 76.3 °F 41.4 °F 29% 29.85 in 10.0 mi WSW 8.1 mph - N/A   Clear
2:55 PM 76.3 °F 42.6 °F 30% 29.83 in 10.0 mi SW 10.4 mph 17.3 mph N/A   Clear
3:55 PM 76.3 °F 40.8 °F 28% 29.82 in 10.0 mi WSW 10.4 mph - N/A   Clear
4:55 PM 74.7 °F 42.6 °F 32% 29.82 in 10.0 mi WSW 9.2 mph - N/A   Clear
5:55 PM 67.8 °F 46.8 °F 47% 29.82 in 10.0 mi WSW 3.5 mph - N/A   Clear
6:55 PM 64.0 °F 46.4 °F 53% 29.84 in 10.0 mi Calm Calm - N/A   Clear
7:55 PM 58.8 °F 48.4 °F 68% 29.89 in 10.0 mi Calm Calm - 7.33 in   Clear
8:55 PM 58.6 °F 46.6 °F 64% 29.87 in 10.0 mi WSW 3.5 mph - N/A   Clear
9:55 PM 57.0 °F 47.7 °F 71% 29.88 in 10.0 mi WSW 3.5 mph - N/A   Clear
10:55 PM 55.2 °F 47.5 °F 75% 29.89 in 10.0 mi WSW 3.5 mph - N/A   Clear
11:55 PM 54.1 °F 47.5 °F 78% 29.88 in 10.0 mi Calm Calm - N/A   Clear